Vertical_Velocity
1 -4 2 2 -2 -2 2 3 2 -5 -3 -3 2 22 9 21 3 -1 1 3 -0 0 -2 3 -1 8 -0 -4 0 3 1 -1
-1 0 -1 -1 0 -1 -2 -2 4 2 1 -0 6 4 29 11 -3 -2 -3 -4 -0 1 1 -5 4 7 -2 0 -3 -1 0 2
0 -0 0 -3 -1 1 0 1 2 -0 -2 1 2 13 10 12 6 -1 -0 -1 1 -1 -1 -5 5 3 3 1 -3 1 1 -2
-1 -3 0 -0 -3 -1 -0 4 2 -2 -4 -6 -4 -4 10 11 0 2 8 1 1 -2 -1 -0 7 6 -2 -3 -4 1 2 1
-2 -0 2 1 -2 -0 -2 -1 -0 -1 -2 0 -6 -1 -3 2 -2 -0 7 -1 0 1 1 -1 8 5 -3 -1 0 -3 2 -1
-1 0 0 2 4 2 1 0 2 5 3 12 12 -2 7 0 2 -1 4 -5 -2 -3 -2 -0 4 5 1 -5 -1 3 0 -1
-1 -2 1 -1 4 3 4 0 1 4 10 10 15 4 -3 3 -0 -0 3 -4 2 0 -1 -1 3 8 2 -5 -2 4 -2 1
1 -2 -2 -1 2 2 5 2 -1 -1 -8 12 4 4 -2 2 -1 -1 -4 -3 2 -3 3 -0 3 6 5 -1 -0 0 -1 0
0 -1 -2 -1 -1 3 5 2 3 1 1 7 1 5 -0 3 -1 0 -1 -3 3 -0 1 4 -4 7 5 -3 1 1 -2 -1
-0 1 1 -2 -1 -0 4 3 1 -1 0 0 9 9 4 3 0 1 0 -2 -1 1 -3 -1 -2 5 6 -1 -1 1 -2 1
1 2 -1 -2 -0 -0 2 1 -2 -3 -1 -0 0 -2 2 12 -4 -2 1 2 2 -2 -0 -4 1 -2 6 1 1 -2 -0 1
-1 2 3 1 2 -0 -0 -3 2 -1 -3 -0 1 2 1 2 -3 3 3 2 3 -2 1 -2 -2 -2 9 -6 -6 -3 -0 0
2 -0 1 -1 0 -2 0 -3 2 -0 1 2 1 4 3 3 4 2 1 1 3 -3 0 -2 -5 8 2 4 1 -1 0 3
-2 1 4 1 -4 3 0 -0 -1 4 -3 -3 -0 1 -3 7 2 1 4 -0 -1 -2 1 -1 1 2 10 -2 5 3 6 6
-2 -1 1 1 -1 -2 -0 1 1 -1 -0 -6 -0 -3 -3 -1 -1 2 2 2 1 2 -1 -2 3 0 -0 6 0 24 9 2
-1 -2 -1 0 -0 -0 -2 1 -0 2 -1 3 2 2 2 6 3 2 -3 -3 5 0 -3 1 0 2 -0 3 -0 7 2 3
-1 -1 -1 0 -1 1 0 -1 1 0 1 4 2 1 0 1 -2 -1 1 4 -2 -5 -0 -2 2 0 3 -0 -0 1 1 5
-0 -1 -2 0 -0 0 -1 0 -2 -1 -0 -1 -1 -3 -3 -2 -4 -4 -1 -1 -1 2 0 1 2 -1 0 -0 1 0 4 1
0 0 -1 0 -1 -1 -1 -2 -2 -3 -2 -1 -3 -3 -2 -2 -3 -2 2 -1 -1 -1 0 3 2 3 1 2 -2 -1 1 0
1 2 -2 -1 2 -0 -1 -0 -1 -2 -4 -1 0 -1 -2 -2 2 1 2 3 1 0 1 0 0 -1 1 1 -1 1 -1 0
Height
5775 5772 5771 5770 5767 5765 5763 5761 5762 5760 5762 5764 5768 5774 5776 5776 5780 5787 5791 5797 5800 5805 5810 5814 5819 5824 5824 5825 5828 5832 5833 5834
5770 5767 5766 5763 5762 5760 5758 5754 5754 5754 5756 5758 5761 5769 5772 5772 5774 5782 5787 5794 5798 5802 5806 5808 5815 5821 5822 5824 5824 5828 5830 5831
5765 5763 5760 5757 5755 5754 5750 5748 5747 5746 5750 5750 5755 5762 5767 5771 5774 5778 5783 5788 5793 5798 5802 5805 5811 5818 5819 5820 5822 5825 5827 5828
5761 5758 5756 5753 5750 5747 5744 5742 5740 5740 5741 5743 5749 5756 5764 5768 5771 5775 5779 5783 5788 5794 5796 5800 5807 5813 5814 5814 5818 5822 5824 5825
5758 5756 5753 5750 5746 5743 5740 5736 5735 5735 5734 5736 5740 5750 5760 5763 5767 5771 5777 5783 5788 5792 5794 5795 5802 5809 5809 5809 5814 5818 5821 5822
5755 5753 5750 5748 5745 5741 5738 5735 5733 5731 5729 5734 5743 5746 5755 5760 5765 5769 5773 5779 5783 5789 5789 5791 5796 5804 5805 5806 5809 5815 5817 5819
5751 5749 5747 5745 5742 5739 5737 5734 5730 5728 5729 5734 5737 5746 5752 5757 5762 5769 5773 5777 5779 5783 5784 5787 5793 5800 5801 5802 5805 5812 5813 5816
5749 5746 5743 5742 5739 5737 5734 5730 5728 5726 5727 5732 5738 5744 5750 5753 5761 5765 5770 5773 5775 5778 5780 5784 5787 5793 5796 5798 5802 5807 5809 5812
5746 5743 5741 5738 5737 5734 5731 5727 5726 5725 5727 5732 5736 5742 5746 5751 5758 5762 5764 5770 5771 5775 5776 5779 5781 5788 5791 5793 5798 5803 5805 5807
5742 5741 5739 5736 5734 5731 5728 5726 5725 5726 5727 5730 5736 5740 5745 5750 5754 5760 5763 5766 5767 5769 5770 5774 5775 5781 5785 5788 5792 5798 5800 5802
5738 5738 5736 5733 5731 5729 5726 5723 5723 5723 5724 5728 5730 5736 5741 5746 5751 5754 5757 5760 5762 5765 5767 5770 5770 5776 5780 5782 5786 5790 5793 5795
5734 5734 5733 5731 5728 5725 5724 5721 5720 5722 5721 5720 5723 5730 5737 5741 5747 5747 5752 5755 5757 5759 5761 5764 5766 5770 5776 5776 5780 5782 5786 5788
5729 5730 5730 5729 5726 5723 5720 5718 5719 5719 5718 5718 5720 5727 5732 5737 5741 5743 5747 5749 5751 5753 5756 5759 5760 5764 5769 5771 5772 5773 5777 5781
5725 5726 5726 5725 5724 5721 5719 5718 5719 5718 5719 5720 5721 5726 5730 5734 5736 5738 5740 5743 5745 5747 5749 5753 5756 5758 5763 5763 5765 5768 5770 5772
5721 5722 5722 5722 5721 5719 5717 5716 5717 5717 5719 5719 5721 5724 5726 5729 5732 5734 5735 5736 5739 5742 5743 5746 5749 5751 5752 5756 5755 5762 5764 5765
5718 5719 5719 5719 5718 5717 5717 5716 5715 5714 5715 5716 5719 5720 5723 5725 5729 5729 5729 5731 5733 5734 5736 5739 5740 5743 5744 5747 5748 5754 5756 5761
5715 5716 5717 5716 5715 5714 5714 5714 5714 5715 5715 5717 5718 5719 5719 5719 5721 5722 5726 5729 5726 5728 5731 5734 5736 5737 5740 5741 5744 5747 5750 5753
5711 5713 5714 5714 5713 5712 5712 5712 5712 5713 5712 5713 5714 5714 5712 5712 5715 5718 5720 5722 5721 5726 5729 5731 5733 5734 5737 5739 5741 5742 5745 5746
5707 5710 5711 5711 5711 5710 5709 5709 5709 5709 5709 5710 5711 5711 5710 5710 5711 5713 5715 5718 5721 5722 5725 5727 5729 5731 5732 5733 5734 5736 5738 5739
5703 5706 5707 5708 5708 5708 5707 5707 5707 5707 5708 5709 5709 5709 5710 5709 5711 5712 5713 5715 5717 5719 5720 5721 5723 5724 5727 5728 5728 5729 5731 5731